Montgomery, AL

5:34 AM CDT on September 26, 2017 (GMT -0500)
Montgomery Regional

Weather History for KMGM - March, 2013

Change the Weather History Date:

Saturday, March 30, 2013

  Actual Average Record
Temperature  
Mean Temperature 64 °F 60 °F  
Max Temperature 79 °F 73 °F 87 °F (1896)
Min Temperature 48 °F 48 °F 31 °F (1964)
Degree Days  
Heating Degree Days 1 6  
Month to date heating degree days 370 250  
Since 1 July heating degree days 1848 2122  
Cooling Degree Days 0 1  
Month to date cooling degree days 7 25  
Year to date cooling degree days 29 31  
Growing Degree Days 14 (Base 50)    
Moisture  
Dew Point 48 °F    
Average Humidity 61    
Maximum Humidity 86    
Minimum Humidity 36    
Precipitation  
Precipitation T in 0.18 in 2.72 in (1886)
Month to date precipitation 2.88 5.77  
Year to date precipitation 19.65 15.70  
Snow  
Snow 0.00 in 0.00 in - ()
Month to date snowfall 0.0 0.3  
Since 1 July snowfall 0.0 0.4  
Snow Depth 0.00 in    
Sea Level Pressure  
Sea Level Pressure 30.12 in    
Wind  
Wind Speed 6 mph (SSW)    
Max Wind Speed 14 mph    
Max Gust Speed 22 mph    
Visibility 10 miles    
Events      
T = Trace of Precipitation, MM = Missing Value Source: NWS Daily Summary

Daily Weather History Graph

Daily Weather History Graph

Search for Another Location

Airport or City:

Trip Planner

Search our weather history database for the weather conditions in past years. The results will help you decide how hot, cold, wet, or windy it might be!

Date:

Astronomy

Mar. 30, 2013 Rise Set
Actual Time 6:36 AM CDT 7:04 PM CDT
Civil Twilight 6:11 AM CDT 7:28 PM CDT
Nautical Twilight 5:42 AM CDT 7:57 PM CDT
Astronomical Twilight 5:13 AM CDT 8:27 PM CDT
Moon 10:56 PM CDT (3/30) 8:43 AM CDT (3/30)
Length of Visible Light 13h 17m
Length of Day
12h 28m
Waning Gibbous, 86% of the Moon is Illuminated
Mar 30
Waning Gibbous
Apr 2
Last Quarter
Apr 10
New
Apr 18
First Quarter
Apr 25
Full

Hourly Weather History & Observations

Time (CDT) Temp. Dew Point Humidity Pressure Visibility Wind Dir Wind Speed Gust Speed Precip Events Conditions
12:53 AM 61.0 °F 43.0 °F 52% 30.20 in 10.0 mi SSW 3.5 mph - N/A   Overcast
1:53 AM 57.9 °F 44.1 °F 60% 30.19 in 10.0 mi South 4.6 mph - N/A   Mostly Cloudy
2:53 AM 57.0 °F 45.0 °F 64% 30.18 in 10.0 mi SSW 4.6 mph - N/A   Overcast
3:53 AM 54.0 °F 45.0 °F 72% 30.17 in 10.0 mi Calm Calm - N/A   Partly Cloudy
4:53 AM 50.0 °F 45.0 °F 83% 30.18 in 10.0 mi Calm Calm - N/A   Scattered Clouds
5:53 AM 51.1 °F 45.0 °F 80% 30.18 in 10.0 mi Calm Calm - N/A   Partly Cloudy
6:53 AM 50.0 °F 46.0 °F 86% 30.18 in 10.0 mi Calm Calm - N/A   Scattered Clouds
7:53 AM 55.0 °F 50.0 °F 83% 30.20 in 10.0 mi Calm Calm - N/A   Clear
8:53 AM 61.0 °F 51.1 °F 70% 30.20 in 10.0 mi SW 4.6 mph - N/A   Clear
9:53 AM 66.0 °F 52.0 °F 60% 30.18 in 10.0 mi West 6.9 mph - N/A   Clear
10:53 AM 70.0 °F 52.0 °F 53% 30.18 in 10.0 mi Variable 6.9 mph - N/A   Clear
11:53 AM 73.0 °F 51.1 °F 46% 30.16 in 10.0 mi SSW 10.4 mph - N/A   Clear
12:53 PM 75.9 °F 51.1 °F 42% 30.13 in 10.0 mi WSW 8.1 mph 17.3 mph N/A   Partly Cloudy
1:53 PM 75.0 °F 51.1 °F 43% 30.10 in 10.0 mi SSW 5.8 mph - N/A   Scattered Clouds
2:53 PM 79.0 °F 50.0 °F 36% 30.06 in 10.0 mi South 11.5 mph 16.1 mph N/A   Mostly Cloudy
3:53 PM 77.0 °F 48.0 °F 36% 30.04 in 10.0 mi SSW 8.1 mph 19.6 mph N/A   Mostly Cloudy
4:53 PM 75.0 °F 48.9 °F 40% 30.03 in 10.0 mi SSW 11.5 mph - N/A   Overcast
5:53 PM 73.9 °F 48.9 °F 41% 30.03 in 10.0 mi SSW 13.8 mph 18.4 mph N/A   Scattered Clouds
6:53 PM 72.0 °F 48.0 °F 43% 30.03 in 10.0 mi South 8.1 mph - N/A   Overcast
7:53 PM 71.1 °F 48.0 °F 44% 30.03 in 10.0 mi South 5.8 mph - N/A   Mostly Cloudy
8:53 PM 70.0 °F 48.9 °F 47% 30.03 in 10.0 mi SSW 9.2 mph - N/A   Mostly Cloudy
9:53 PM 68.0 °F 50.0 °F 52% 30.05 in 10.0 mi SSW 5.8 mph - N/A   Overcast
10:53 PM 66.0 °F 52.0 °F 60% 30.05 in 10.0 mi South 5.8 mph - 0.00 in   Overcast
11:53 PM 66.0 °F 53.1 °F 63% 30.04 in 10.0 mi South 9.2 mph - N/A   Overcast